Time,TemperatureF,DewpointF,PressureIn,WindDirection,WindDirectionDegrees,WindSpeedMPH,WindSpeedGustMPH,Humidity,HourlyPrecipIn,Conditions,Clouds,dailyrainin,SoftwareType,DateUTC
2013-03-20 00:00:00,26.0,9.0,29.69,NNW,340,40.0,54.0,47,-99.99,,,-99.99,,2013-03-20 08:00:00,
2013-03-20 00:41:00,26.0,9.0,29.69,NNW,340,40.0,54.0,47,-99.99,,,-99.99,,2013-03-20 08:41:00,
2013-03-20 00:51:00,26.0,9.0,29.69,NNW,340,40.0,54.0,47,-99.99,,,-99.99,,2013-03-20 08:51:00,
2013-03-20 01:00:00,26.0,7.0,29.70,NNW,340,44.0,55.0,43,-99.99,,,-99.99,,2013-03-20 09:00:00,
2013-03-20 01:42:00,26.0,7.0,29.70,NNW,340,44.0,55.0,43,-99.99,,,-99.99,,2013-03-20 09:42:00,
2013-03-20 01:52:00,26.0,7.0,29.70,NNW,340,44.0,55.0,43,-99.99,,,-99.99,,2013-03-20 09:52:00,
2013-03-20 02:00:00,25.0,8.0,29.69,NNW,340,37.0,55.0,48,-99.99,,,-99.99,,2013-03-20 10:00:00,
2013-03-20 02:42:00,25.0,8.0,29.69,NNW,340,37.0,55.0,48,-99.99,,,-99.99,,2013-03-20 10:42:00,
2013-03-20 02:52:00,25.0,8.0,29.69,NNW,340,37.0,55.0,48,-99.99,,,-99.99,,2013-03-20 10:52:00,
2013-03-20 03:00:00,25.0,8.0,29.69,NNW,340,40.0,59.0,48,-99.99,,,-99.99,,2013-03-20 11:00:00,
2013-03-20 03:42:00,25.0,8.0,29.69,NNW,340,40.0,59.0,48,-99.99,,,-99.99,,2013-03-20 11:42:00,
2013-03-20 03:51:00,25.0,8.0,29.69,NNW,340,40.0,59.0,48,-99.99,,,-99.99,,2013-03-20 11:51:00,
2013-03-20 04:00:00,24.0,8.0,29.69,NNW,340,39.0,60.0,49,-99.99,,,-99.99,,2013-03-20 12:00:00,
2013-03-20 04:42:00,24.0,8.0,29.69,NNW,340,39.0,60.0,49,-99.99,,,-99.99,,2013-03-20 12:42:00,
2013-03-20 04:51:00,24.0,8.0,29.69,NNW,340,39.0,60.0,49,-99.99,,,-99.99,,2013-03-20 12:51:00,
2013-03-20 05:00:00,23.0,6.0,29.69,NNW,330,44.0,59.0,47,-99.99,,,-99.99,,2013-03-20 13:00:00,
2013-03-20 05:41:00,23.0,6.0,29.69,NNW,330,44.0,59.0,47,-99.99,,,-99.99,,2013-03-20 13:41:00,
2013-03-20 05:52:00,23.0,6.0,29.69,NNW,330,44.0,59.0,47,-99.99,,,-99.99,,2013-03-20 13:52:00,
2013-03-20 06:00:00,22.0,5.0,29.70,NNW,330,44.0,61.0,47,-99.99,,,-99.99,,2013-03-20 14:00:00,
2013-03-20 06:41:00,22.0,5.0,29.70,NNW,330,44.0,61.0,47,-99.99,,,-99.99,,2013-03-20 14:41:00,
2013-03-20 06:51:00,22.0,5.0,29.70,NNW,330,44.0,61.0,47,-99.99,,,-99.99,,2013-03-20 14:51:00,
2013-03-20 07:00:00,22.0,5.0,29.71,NNW,340,47.0,62.0,47,-99.99,,,-99.99,,2013-03-20 15:00:00,
2013-03-20 07:42:00,22.0,5.0,29.71,NNW,340,47.0,62.0,47,-99.99,,,-99.99,,2013-03-20 15:42:00,
2013-03-20 07:52:00,22.0,5.0,29.71,NNW,340,47.0,62.0,47,-99.99,,,-99.99,,2013-03-20 15:52:00,
2013-03-20 08:00:00,22.0,4.0,29.71,NNW,340,45.0,62.0,45,-99.99,,,-99.99,,2013-03-20 16:00:00,
2013-03-20 08:42:00,22.0,4.0,29.71,NNW,340,45.0,62.0,45,-99.99,,,-99.99,,2013-03-20 16:42:00,
2013-03-20 08:52:00,22.0,4.0,29.71,NNW,340,45.0,62.0,45,-99.99,,,-99.99,,2013-03-20 16:52:00,
2013-03-20 09:00:00,21.0,4.0,29.71,NNW,340,46.0,61.0,46,-99.99,,,-99.99,,2013-03-20 17:00:00,
2013-03-20 09:41:00,21.0,4.0,29.71,NNW,340,46.0,61.0,46,-99.99,,,-99.99,,2013-03-20 17:41:00,
2013-03-20 09:52:00,21.0,4.0,29.71,NNW,340,46.0,61.0,46,-99.99,,,-99.99,,2013-03-20 17:52:00,
2013-03-20 10:00:00,22.0,5.0,29.71,NNW,340,45.0,63.0,47,-99.99,,,-99.99,,2013-03-20 18:00:00,
2013-03-20 11:00:00,23.0,6.0,29.72,NNW,330,44.0,62.0,47,-99.99,,,-99.99,,2013-03-20 19:00:00,
2013-03-20 11:41:00,23.0,6.0,29.72,NNW,330,44.0,62.0,47,-99.99,,,-99.99,,2013-03-20 19:41:00,
2013-03-20 11:52:00,23.0,6.0,29.72,NNW,330,44.0,62.0,47,-99.99,,,-99.99,,2013-03-20 19:52:00,
2013-03-20 12:41:00,23.0,7.0,29.72,NNW,330,39.0,61.0,49,-99.99,,,-99.99,,2013-03-20 20:41:00,
2013-03-20 12:52:00,23.0,7.0,29.72,NNW,330,39.0,61.0,49,-99.99,,,-99.99,,2013-03-20 20:52:00,
2013-03-20 13:00:00,24.0,5.0,29.72,NNW,330,41.0,59.0,43,-99.99,,,-99.99,,2013-03-20 21:00:00,
2013-03-20 13:41:00,24.0,5.0,29.72,NNW,330,41.0,59.0,43,-99.99,,,-99.99,,2013-03-20 21:41:00,
2013-03-20 13:52:00,24.0,5.0,29.72,NNW,330,41.0,59.0,43,-99.99,,,-99.99,,2013-03-20 21:52:00,
2013-03-20 14:00:00,24.0,3.0,29.73,NNW,330,39.0,55.0,39,-99.99,,,-99.99,,2013-03-20 22:00:00,
2013-03-20 14:41:00,24.0,3.0,29.73,NNW,330,39.0,55.0,39,-99.99,,,-99.99,,2013-03-20 22:41:00,
2013-03-20 14:52:00,24.0,3.0,29.73,NNW,330,39.0,55.0,39,-99.99,,,-99.99,,2013-03-20 22:52:00,
2013-03-20 16:00:00,26.0,5.0,29.74,NNW,340,37.0,52.0,39,-99.99,,,-99.99,,2013-03-21 00:00:00,
2013-03-20 16:41:00,26.0,5.0,29.74,NNW,340,37.0,52.0,39,-99.99,,,-99.99,,2013-03-21 00:41:00,
2013-03-20 16:52:00,26.0,5.0,29.74,NNW,340,37.0,52.0,39,-99.99,,,-99.99,,2013-03-21 00:52:00,
2013-03-20 17:00:00,26.0,7.0,29.73,NNW,340,38.0,51.0,43,-99.99,,,-99.99,,2013-03-21 01:00:00,
2013-03-20 17:41:00,26.0,7.0,29.73,NNW,340,38.0,51.0,43,-99.99,,,-99.99,,2013-03-21 01:41:00,
2013-03-20 17:52:00,26.0,7.0,29.73,NNW,340,38.0,51.0,43,-99.99,,,-99.99,,2013-03-21 01:52:00,
2013-03-20 18:00:00,25.0,6.0,29.74,NNW,340,37.0,51.0,43,-99.99,,,-99.99,,2013-03-21 02:00:00,
2013-03-20 19:00:00,24.0,1.0,29.76,NNW,340,36.0,53.0,36,-99.99,,,-99.99,,2013-03-21 03:00:00,
2013-03-20 19:42:00,24.0,1.0,29.76,NNW,340,36.0,53.0,36,-99.99,,,-99.99,,2013-03-21 03:42:00,
2013-03-20 19:52:00,24.0,1.0,29.76,NNW,340,36.0,53.0,36,-99.99,,,-99.99,,2013-03-21 03:52:00,
2013-03-20 20:00:00,24.0,1.0,29.78,NNW,340,38.0,51.0,36,-99.99,,,-99.99,,2013-03-21 04:00:00,
2013-03-20 20:43:00,24.0,1.0,29.78,NNW,340,38.0,51.0,36,-99.99,,,-99.99,,2013-03-21 04:43:00,
2013-03-20 20:52:00,24.0,1.0,29.78,NNW,340,38.0,51.0,36,-99.99,,,-99.99,,2013-03-21 04:52:00,
2013-03-20 21:00:00,23.0,2.0,29.80,NNW,340,38.0,52.0,39,-99.99,,,-99.99,,2013-03-21 05:00:00,
2013-03-20 21:42:00,23.0,2.0,29.80,NNW,340,38.0,52.0,39,-99.99,,,-99.99,,2013-03-21 05:42:00,
2013-03-20 21:51:00,23.0,2.0,29.80,NNW,340,38.0,52.0,39,-99.99,,,-99.99,,2013-03-21 05:51:00,
2013-03-20 22:00:00,23.0,2.0,29.81,NNW,340,37.0,51.0,39,-99.99,,,-99.99,,2013-03-21 06:00:00,
2013-03-20 22:41:00,23.0,2.0,29.81,NNW,340,37.0,51.0,39,-99.99,,,-99.99,,2013-03-21 06:41:00,
2013-03-20 22:51:00,23.0,2.0,29.81,NNW,340,37.0,51.0,39,-99.99,,,-99.99,,2013-03-21 06:51:00,
2013-03-20 23:00:00,23.0,4.0,29.82,NW,320,39.0,51.0,43,-99.99,,,-99.99,,2013-03-21 07:00:00,
2013-03-20 23:41:00,23.0,4.0,29.82,NW,320,39.0,51.0,43,-99.99,,,-99.99,,2013-03-21 07:41:00,
2013-03-20 23:52:00,23.0,4.0,29.82,NW,320,39.0,51.0,43,-99.99,,,-99.99,,2013-03-21 07:52:00,